| time (UTC) | temp C | wind direction | speed KPH | gust KPH | rain 1hr cm | rain 24hr cm | rain mn cm | humidity % | barometer mb |
| 20260506222148 | 11 | 126 | 3.2 | 6.4 | 0.00 | 0.03 | 0.03 | 88 | 1021.5 |
| 20260506221648 | 11 | 93 | 3.2 | 6.4 | 0.00 | 0.03 | 0.03 | 89 | 1021.5 |
| 20260506221148 | 11 | 105 | 1.6 | 4.8 | 0.00 | 0.03 | 0.03 | 89 | 1021.5 |
| 20260506220648 | 11 | 129 | 1.6 | 6.4 | 0.00 | 0.03 | 0.03 | 89 | 1021.5 |
| 20260506220148 | 11 | 94 | 1.6 | 8.0 | 0.00 | 0.03 | 0.03 | 89 | 1021.6 |
| 20260506215647 | 11 | 126 | 3.2 | 8.0 | 0.00 | 0.03 | 0.03 | 89 | 1021.5 |
| 20260506215147 | 11 | 125 | 1.6 | 8.0 | 0.00 | 0.03 | 0.03 | 89 | 1021.5 |
| 20260506214648 | 11 | 88 | 3.2 | 8.0 | 0.00 | 0.03 | 0.03 | 89 | 1021.5 |
| 20260506214148 | 11 | 98 | 4.8 | 6.4 | 0.00 | 0.03 | 0.03 | 88 | 1021.6 |
| 20260506213147 | 11 | 108 | 1.6 | 8.0 | 0.00 | 0.03 | 0.03 | 88 | 1021.7 |
| 20260506212647 | 12 | 94 | 3.2 | 8.0 | 0.00 | 0.03 | 0.03 | 86 | 1021.7 |
| 20260506212147 | 12 | 263 | 3.2 | 4.8 | 0.00 | 0.03 | 0.03 | 86 | 1021.7 |
| 20260506211147 | 12 | 248 | 0.0 | 9.7 | 0.00 | 0.03 | 0.03 | 87 | 1021.6 |
| 20260506210647 | 12 | 251 | 0.0 | 9.7 | 0.00 | 0.03 | 0.03 | 87 | 1021.7 |
| 20260506210147 | 12 | 243 | 6.4 | 8.0 | 0.00 | 0.03 | 0.03 | 88 | 1021.6 |
| 20260506205646 | 11 | 241 | 3.2 | 8.0 | 0.00 | 0.03 | 0.03 | 89 | 1021.5 |
| 20260506205146 | 11 | 220 | 1.6 | 8.0 | 0.00 | 0.03 | 0.03 | 90 | 1021.5 |
| 20260506204647 | 11 | 321 | 3.2 | 11.3 | 0.00 | 0.03 | 0.03 | 90 | 1021.6 |
| 20260506204147 | 11 | 252 | 1.6 | 11.3 | 0.00 | 0.03 | 0.03 | 91 | 1021.5 |
| 20260506203646 | 11 | 265 | 0.0 | 9.7 | 0.00 | 0.03 | 0.03 | 91 | 1021.6 |
| 20260506203146 | 11 | 244 | 1.6 | 12.9 | 0.00 | 0.03 | 0.03 | 92 | 1021.7 |
| 20260506202646 | 11 | 270 | 3.2 | 12.9 | 0.00 | 0.03 | 0.03 | 92 | 1021.7 |
| 20260506202146 | 11 | 287 | 4.8 | 11.3 | 0.00 | 0.03 | 0.03 | 93 | 1021.6 |
| 20260506201646 | 11 | 243 | 1.6 | 8.0 | 0.00 | 0.03 | 0.03 | 93 | 1021.6 |
| 20260506200646 | 10 | 255 | 3.2 | 11.3 | 0.00 | 0.03 | 0.03 | 93 | 1021.6 |
| 20260506200146 | 10 | 259 | 4.8 | 11.3 | 0.00 | 0.03 | 0.03 | 93 | 1021.5 |
| 20260506195645 | 10 | 336 | 4.8 | 11.3 | 0.00 | 0.03 | 0.03 | 94 | 1021.5 |
| 20260506195145 | 10 | 302 | 1.6 | 11.3 | 0.00 | 0.03 | 0.03 | 94 | 1021.5 |
| 20260506194646 | 10 | 325 | 3.2 | 11.3 | 0.00 | 0.03 | 0.03 | 94 | 1021.4 |
| 20260506194145 | 10 | 307 | 1.6 | 9.7 | 0.00 | 0.03 | 0.03 | 94 | 1021.4 |
| 20260506193645 | 10 | 279 | 3.2 | 9.7 | 0.00 | 0.03 | 0.03 | 95 | 1021.3 |
| 20260506192145 | 10 | 263 | 3.2 | 12.9 | 0.00 | 0.03 | 0.03 | 96 | 1021.3 |
| 20260506191145 | 10 | 229 | 6.4 | 11.3 | 0.00 | 0.03 | 0.03 | 96 | 1021.2 |
| 20260506190645 | 10 | 296 | 3.2 | 11.3 | 0.00 | 0.03 | 0.03 | 96 | 1021.2 |
| 20260506190145 | 10 | 287 | 3.2 | 11.3 | 0.00 | 0.03 | 0.03 | 96 | 1021.2 |
| 20260506185645 | 10 | 252 | 0.0 | 11.3 | 0.00 | 0.03 | 0.03 | 96 | 1021.1 |
| 20260506185144 | 10 | 266 | 3.2 | 11.3 | 0.00 | 0.03 | 0.03 | 96 | 1021.1 |
| 20260506184144 | 10 | 237 | 0.0 | 9.7 | 0.00 | 0.03 | 0.03 | 96 | 1021.1 |
| 20260506183644 | 10 | 272 | 1.6 | 11.3 | 0.00 | 0.03 | 0.03 | 97 | 1021.0 |
| 20260506183144 | 10 | 288 | 6.4 | 11.3 | 0.00 | 0.03 | 0.03 | 96 | 1021.0 |
| 20260506182644 | 10 | 283 | 3.2 | 12.9 | 0.00 | 0.03 | 0.03 | 96 | 1021.0 |
| 20260506182144 | 10 | 338 | 3.2 | 12.9 | 0.00 | 0.03 | 0.03 | 97 | 1021.0 |
| 20260506181143 | 9 | 278 | 4.8 | 11.3 | 0.00 | 0.03 | 0.03 | 97 | 1021.0 |
| 20260506180644 | 9 | 252 | 3.2 | 9.7 | 0.00 | 0.03 | 0.03 | 97 | 1021.0 |
| 20260506180143 | 9 | 326 | 8.0 | 9.7 | 0.00 | 0.03 | 0.03 | 97 | 1021.0 |
| 20260506175643 | 9 | 303 | 3.2 | 9.7 | 0.03 | 0.03 | 0.03 | 97 | 1021.0 |
| 20260506174643 | 9 | 283 | 4.8 | 8.0 | 0.03 | 0.03 | 0.03 | 97 | 1020.8 |
| 20260506174143 | 9 | 288 | 4.8 | 6.4 | 0.03 | 0.03 | 0.03 | 97 | 1020.8 |
| 20260506173643 | 9 | 261 | 0.0 | 9.7 | 0.03 | 0.03 | 0.03 | 97 | 1020.7 |
| 20260506173143 | 9 | 292 | 3.2 | 9.7 | 0.03 | 0.03 | 0.03 | 97 | 1020.7 |
| 20260506172643 | 9 | 309 | 6.4 | 9.7 | 0.03 | 0.03 | 0.03 | 97 | 1020.7 |
| 20260506172143 | 9 | 292 | 6.4 | 9.7 | 0.03 | 0.03 | 0.03 | 97 | 1020.6 |
| 20260506171643 | 9 | 282 | 8.0 | 8.0 | 0.03 | 0.03 | 0.03 | 97 | 1020.7 |
| 20260506171143 | 9 | 293 | 3.2 | 8.0 | 0.03 | 0.03 | 0.03 | 97 | 1020.6 |
| 20260506170642 | 9 | 282 | 3.2 | 6.4 | 0.03 | 0.03 | 0.03 | 97 | 1020.5 |
| 20260506170143 | 9 | 288 | 3.2 | 6.4 | 0.03 | 0.03 | 0.03 | 97 | 1020.3 |
| 20260506165642 | 9 | 304 | 3.2 | 6.4 | 0.00 | 0.00 | 0.00 | 97 | 1020.2 |
| 20260506165142 | 9 | 285 | 1.6 | 9.7 | 0.00 | 0.00 | 0.00 | 97 | 1020.4 |
| 20260506164642 | 9 | 299 | 4.8 | 9.7 | 0.00 | 0.00 | 0.00 | 97 | 1020.5 |
| 20260506164142 | 9 | 307 | 4.8 | 9.7 | 0.00 | 0.00 | 0.00 | 97 | 1020.5 |
| 20260506163642 | 9 | 269 | 4.8 | 9.7 | 0.00 | 0.00 | 0.00 | 97 | 1020.6 |
| 20260506163142 | 9 | 262 | 3.2 | 9.7 | 0.00 | 0.00 | 0.00 | 97 | 1020.5 |
| 20260506162141 | 9 | 266 | 3.2 | 8.0 | 0.00 | 0.00 | 0.00 | 97 | 1020.5 |
| 20260506161642 | 9 | 319 | 8.0 | 8.0 | 0.00 | 0.00 | 0.00 | 97 | 1020.5 |
| 20260506161141 | 9 | 329 | 4.8 | 8.0 | 0.00 | 0.00 | 0.00 | 96 | 1020.7 |
| 20260506160641 | 9 | 327 | 1.6 | 6.4 | 0.00 | 0.00 | 0.00 | 97 | 1020.8 |
| 20260506160141 | 10 | 291 | 1.6 | 4.8 | 0.00 | 0.00 | 0.00 | 97 | 1020.7 |
| 20260506155641 | 10 | 46 | 3.2 | 4.8 | 0.00 | 0.00 | 0.00 | 96 | 1020.6 |
| 20260506155141 | 10 | 265 | 4.8 | 4.8 | 0.00 | 0.00 | 0.00 | 97 | 1020.6 |
| 20260506154641 | 10 | 82 | 0.0 | 3.2 | 0.00 | 0.00 | 0.00 | 97 | 1020.5 |
| 20260506154141 | 10 | 81 | 0.0 | 1.6 | 0.00 | 0.00 | 0.00 | 97 | 1020.5 |
| 20260506153641 | 10 | 82 | 0.0 | 3.2 | 0.00 | 0.00 | 0.00 | 97 | 1020.5 |
| 20260506153140 | 10 | 82 | 0.0 | 3.2 | 0.00 | 0.00 | 0.00 | 97 | 1020.6 |
| 20260506152640 | 10 | 82 | 0.0 | 0.0 | 0.00 | 0.00 | 0.00 | 97 | 1020.4 |
| 20260506152140 | 10 | 82 | 0.0 | 0.0 | 0.00 | 0.00 | 0.00 | 97 | 1020.2 |
| 20260506151640 | 9 | 82 | 0.0 | 1.6 | 0.00 | 0.00 | 0.00 | 97 | 1020.1 |
| 20260506151141 | 9 | 82 | 0.0 | 1.6 | 0.00 | 0.00 | 0.00 | 96 | 1020.0 |
| 20260506145640 | 10 | 112 | 3.2 | 4.8 | 0.00 | 0.00 | 0.00 | 96 | 1019.8 |
| 20260506145140 | 10 | 82 | 3.2 | 4.8 | 0.00 | 0.00 | 0.00 | 96 | 1019.8 |
| 20260506144640 | 10 | 98 | 1.6 | 4.8 | 0.00 | 0.00 | 0.00 | 96 | 1019.8 |
| 20260506144139 | 10 | 110 | 4.8 | 4.8 | 0.00 | 0.00 | 0.00 | 96 | 1019.9 |
| 20260506143640 | 10 | 96 | 0.0 | 4.8 | 0.00 | 0.00 | 0.00 | 96 | 1020.0 |
| 20260506143139 | 10 | 96 | 0.0 | 4.8 | 0.00 | 0.00 | 0.00 | 96 | 1020.1 |
| 20260506142639 | 10 | 119 | 4.8 | 4.8 | 0.00 | 0.00 | 0.00 | 96 | 1020.0 |
| 20260506142140 | 10 | 116 | 3.2 | 3.2 | 0.00 | 0.00 | 0.00 | 96 | 1020.0 |
| 20260506141639 | 10 | 116 | 0.0 | 1.6 | 0.00 | 0.00 | 0.00 | 96 | 1020.1 |
| 20260506141139 | 10 | 116 | 0.0 | 1.6 | 0.00 | 0.00 | 0.00 | 96 | 1020.1 |
| 20260506140639 | 10 | 116 | 0.0 | 4.8 | 0.00 | 0.00 | 0.00 | 96 | 1019.9 |
| 20260506135639 | 10 | 288 | 3.2 | 3.2 | 0.00 | 0.00 | 0.00 | 96 | 1019.6 |
| 20260506134639 | 10 | 288 | 0.0 | 0.0 | 0.00 | 0.00 | 0.00 | 96 | 1019.6 |
| 20260506134139 | 10 | 288 | 0.0 | 0.0 | 0.00 | 0.00 | 0.00 | 96 | 1019.6 |
| 20260506133639 | 10 | 288 | 0.0 | 0.0 | 0.00 | 0.00 | 0.00 | 96 | 1019.6 |
| 20260506133138 | 9 | 288 | 0.0 | 1.6 | 0.00 | 0.00 | 0.00 | 96 | 1019.5 |
| 20260506132639 | 9 | 288 | 0.0 | 1.6 | 0.00 | 0.00 | 0.00 | 96 | 1019.5 |
| 20260506132139 | 9 | 288 | 0.0 | 3.2 | 0.00 | 0.00 | 0.00 | 96 | 1019.5 |
| 20260506131638 | 9 | 288 | 1.6 | 3.2 | 0.00 | 0.00 | 0.00 | 96 | 1019.6 |
| 20260506131138 | 9 | 288 | 0.0 | 4.8 | 0.00 | 0.00 | 0.00 | 95 | 1019.4 |
| 20260506130638 | 9 | 288 | 1.6 | 4.8 | 0.00 | 0.00 | 0.00 | 95 | 1019.5 |
| 20260506130138 | 9 | 257 | 0.0 | 3.2 | 0.00 | 0.00 | 0.00 | 95 | 1019.3 |
| 20260506125138 | 9 | 268 | 1.6 | 4.8 | 0.00 | 0.00 | 0.00 | 95 | 1019.6 |
| 20260506124638 | 9 | 262 | 1.6 | 6.4 | 0.00 | 0.00 | 0.00 | 95 | 1019.5 |
| 20260506124137 | 9 | 262 | 0.0 | 6.4 | 0.00 | 0.00 | 0.00 | 95 | 1019.6 |
| 20260506123638 | 10 | 288 | 1.6 | 6.4 | 0.00 | 0.00 | 0.00 | 95 | 1019.6 |
| 20260506123137 | 10 | 279 | 1.6 | 6.4 | 0.00 | 0.00 | 0.00 | 95 | 1019.6 |
| 20260506122138 | 10 | 299 | 3.2 | 6.4 | 0.00 | 0.00 | 0.00 | 94 | 1019.4 |
| 20260506121637 | 10 | 269 | 0.0 | 6.4 | 0.00 | 0.00 | 0.00 | 94 | 1019.4 |
| 20260506120637 | 10 | 250 | 0.0 | 3.2 | 0.00 | 0.00 | 0.00 | 94 | 1019.5 |
| 20260506120137 | 10 | 115 | 0.0 | 3.2 | 0.00 | 0.00 | 0.00 | 94 | 1019.4 |
| 20260506115636 | 10 | 115 | 0.0 | 3.2 | 0.00 | 0.00 | 0.00 | 94 | 1019.2 |
| 20260506115137 | 10 | 115 | 3.2 | 3.2 | 0.00 | 0.00 | 0.00 | 94 | 1019.3 |
| 20260506114637 | 10 | 214 | 0.0 | 1.6 | 0.00 | 0.00 | 0.00 | 94 | 1019.4 |
| 20260506114137 | 10 | 214 | 0.0 | 1.6 | 0.00 | 0.00 | 0.00 | 94 | 1019.4 |
| 20260506113636 | 10 | 214 | 0.0 | 1.6 | 0.00 | 0.00 | 0.00 | 93 | 1019.3 |
| 20260506113137 | 10 | 214 | 0.0 | 1.6 | 0.00 | 0.00 | 0.00 | 93 | 1019.3 |
| 20260506112636 | 10 | 214 | 0.0 | 1.6 | 0.00 | 0.00 | 0.00 | 93 | 1019.1 |
| 20260506112136 | 10 | 214 | 0.0 | 0.0 | 0.00 | 0.00 | 0.00 | 93 | 1019.1 |
| 20260506111206 | 10 | 214 | 0.0 | 1.6 | 0.00 | 0.00 | 0.00 | 93 | 1019.1 |
| 20260506110706 | 10 | 214 | 0.0 | 1.6 | 0.00 | 0.00 | 0.00 | 93 | 1019.0 |
| 20260506110136 | 10 | 214 | 0.0 | 1.6 | 0.00 | 0.00 | 0.00 | 93 | 1019.0 |
| 20260506105636 | 10 | 214 | 0.0 | 1.6 | 0.00 | 0.00 | 0.00 | 93 | 1018.7 |
| 20260506105206 | 10 | 214 | 0.0 | 1.6 | 0.00 | 0.00 | 0.00 | 93 | 1018.7 |
| 20260506104706 | 10 | 214 | 0.0 | 3.2 | 0.00 | 0.00 | 0.00 | 93 | 1018.6 |
| 20260506104135 | 10 | 214 | 0.0 | 3.2 | 0.00 | 0.00 | 0.00 | 93 | 1018.5 |
| 20260506103705 | 10 | 217 | 0.0 | 3.2 | 0.00 | 0.00 | 0.00 | 93 | 1018.5 |
| 20260506103136 | 10 | 217 | 0.0 | 3.2 | 0.00 | 0.00 | 0.00 | 93 | 1018.4 |
| 20260506102635 | 10 | 238 | 0.0 | 3.2 | 0.00 | 0.00 | 0.00 | 93 | 1018.3 |
| 20260506102205 | 10 | 255 | 0.0 | 0.0 | 0.00 | 0.00 | 0.00 | 93 | 1018.3 |
| 20260506101705 | 10 | 255 | 0.0 | 0.0 | 0.00 | 0.00 | 0.00 | 93 | 1018.2 |
| 20260506101205 | 10 | 255 | 0.0 | 1.6 | 0.00 | 0.00 | 0.00 | 93 | 1018.3 |
| 20260506100635 | 10 | 255 | 0.0 | 1.6 | 0.00 | 0.00 | 0.00 | 93 | 1018.2 |
| 20260506100205 | 10 | 255 | 0.0 | 3.2 | 0.00 | 0.00 | 0.00 | 93 | 1018.2 |
| 20260506095635 | 10 | 256 | 0.0 | 3.2 | 0.00 | 0.00 | 0.00 | 93 | 1018.2 |
| 20260506095204 | 10 | 255 | 0.0 | 6.4 | 0.00 | 0.00 | 0.00 | 93 | 1018.2 |
| 20260506094635 | 10 | 274 | 0.0 | 6.4 | 0.00 | 0.00 | 0.00 | 93 | 1018.2 |
| 20260506094135 | 10 | 266 | 1.6 | 6.4 | 0.00 | 0.00 | 0.00 | 93 | 1018.2 |
| 20260506093704 | 10 | 258 | 4.8 | 8.0 | 0.00 | 0.00 | 0.00 | 93 | 1018.1 |
| 20260506093204 | 10 | 264 | 3.2 | 8.0 | 0.00 | 0.00 | 0.00 | 93 | 1018.1 |
| 20260506092704 | 10 | 248 | 3.2 | 8.0 | 0.00 | 0.00 | 0.00 | 94 | 1018.0 |
| 20260506092204 | 10 | 248 | 4.8 | 8.0 | 0.00 | 0.00 | 0.00 | 94 | 1018.0 |
| 20260506091704 | 10 | 250 | 8.0 | 8.0 | 0.00 | 0.00 | 0.00 | 94 | 1018.0 |
| 20260506091204 | 10 | 219 | 3.2 | 8.0 | 0.00 | 0.00 | 0.00 | 94 | 1018.1 |
| 20260506090634 | 10 | 267 | 1.6 | 8.0 | 0.00 | 0.00 | 0.00 | 94 | 1018.1 |
| 20260506090204 | 9 | 259 | 3.2 | 8.0 | 0.00 | 0.00 | 0.00 | 94 | 1018.1 |
| 20260506085133 | 9 | 255 | 4.8 | 6.4 | 0.00 | 0.00 | 0.00 | 94 | 1018.1 |
| 20260506084703 | 9 | 247 | 0.0 | 6.4 | 0.00 | 0.00 | 0.00 | 94 | 1018.0 |
| 20260506084203 | 9 | 237 | 4.8 | 6.4 | 0.00 | 0.00 | 0.00 | 94 | 1018.0 |
| 20260506083634 | 9 | 258 | 3.2 | 6.4 | 0.00 | 0.00 | 0.00 | 94 | 1018.0 |
| 20260506083203 | 9 | 276 | 3.2 | 6.4 | 0.00 | 0.00 | 0.00 | 94 | 1018.0 |
| 20260506082703 | 9 | 274 | 4.8 | 6.4 | 0.00 | 0.00 | 0.00 | 94 | 1018.0 |
| 20260506082133 | 9 | 271 | 3.2 | 6.4 | 0.00 | 0.00 | 0.00 | 94 | 1017.9 |
| 20260506081703 | 9 | 282 | 4.8 | 6.4 | 0.00 | 0.00 | 0.00 | 94 | 1017.8 |
| 20260506081203 | 9 | 284 | 3.2 | 6.4 | 0.00 | 0.00 | 0.00 | 94 | 1017.7 |
| 20260506080703 | 9 | 249 | 3.2 | 6.4 | 0.00 | 0.00 | 0.00 | 94 | 1017.7 |
| 20260506080203 | 9 | 250 | 4.8 | 6.4 | 0.00 | 0.00 | 0.00 | 94 | 1017.7 |
| 20260506073202 | 9 | 268 | 3.2 | 6.4 | 0.00 | 0.00 | 0.00 | 93 | 1017.3 |
| 20260506072702 | 9 | 276 | 1.6 | 6.4 | 0.00 | 0.00 | 0.00 | 93 | 1017.2 |
| 20260506072202 | 9 | 270 | 3.2 | 6.4 | 0.00 | 0.00 | 0.00 | 93 | 1017.2 |
| 20260506071702 | 9 | 264 | 3.2 | 6.4 | 0.00 | 0.00 | 0.00 | 93 | 1017.2 |
| 20260506071202 | 10 | 274 | 3.2 | 8.0 | 0.00 | 0.00 | 0.00 | 93 | 1017.1 |
| 20260506070702 | 10 | 254 | 1.6 | 8.0 | 0.00 | 0.00 | 0.00 | 93 | 1017.2 |
| 20260506062201 | 10 | 259 | 6.4 | 11.3 | 0.00 | 0.00 | 0.00 | 92 | 1016.9 |
| 20260506061701 | 10 | 233 | 6.4 | 12.9 | 0.00 | 0.00 | 0.00 | 92 | 1016.9 |
| 20260506061201 | 10 | 262 | 11.3 | 14.5 | 0.00 | 0.00 | 0.00 | 92 | 1017.0 |
| 20260506060701 | 10 | 259 | 4.8 | 14.5 | 0.00 | 0.00 | 0.00 | 92 | 1016.9 |
| 20260506060201 | 10 | 254 | 6.4 | 14.5 | 0.00 | 0.00 | 0.00 | 92 | 1017.0 |
| 20260506050700 | 10 | 257 | 11.3 | 12.9 | 0.00 | 0.00 | 0.00 | 91 | 1016.7 |
| 20260506050200 | 10 | 264 | 6.4 | 12.9 | 0.00 | 0.00 | 0.00 | 91 | 1016.7 |
| 20260506044659 | 10 | 280 | 6.4 | 12.9 | 0.00 | 0.00 | 0.00 | 90 | 1016.6 |
| 20260506044159 | 10 | 262 | 6.4 | 12.9 | 0.00 | 0.00 | 0.00 | 90 | 1016.6 |
| 20260506043659 | 10 | 265 | 3.2 | 8.0 | 0.00 | 0.00 | 0.00 | 90 | 1016.4 |
| 20260506043159 | 10 | 287 | 3.2 | 9.7 | 0.00 | 0.00 | 0.00 | 90 | 1016.4 |
| 20260506042659 | 10 | 251 | 6.4 | 9.7 | 0.00 | 0.00 | 0.00 | 90 | 1016.3 |
| 20260506042159 | 11 | 277 | 4.8 | 9.7 | 0.00 | 0.00 | 0.00 | 90 | 1016.3 |
| 20260506041659 | 11 | 267 | 4.8 | 8.0 | 0.00 | 0.00 | 0.00 | 89 | 1016.2 |
| 20260506040659 | 11 | 282 | 6.4 | 8.0 | 0.00 | 0.00 | 0.00 | 89 | 1016.0 |
| 20260506040158 | 11 | 282 | 4.8 | 8.0 | 0.00 | 0.00 | 0.00 | 89 | 1016.0 |
| 20260506035658 | 11 | 270 | 4.8 | 8.0 | 0.00 | 0.00 | 0.00 | 88 | 1015.9 |
| 20260506035159 | 11 | 257 | 8.0 | 8.0 | 0.00 | 0.00 | 0.00 | 88 | 1015.9 |
| 20260506034658 | 11 | 257 | 6.4 | 9.7 | 0.00 | 0.00 | 0.00 | 88 | 1015.9 |
| 20260506034159 | 11 | 269 | 6.4 | 9.7 | 0.00 | 0.00 | 0.00 | 88 | 1015.9 |
| 20260506033658 | 11 | 283 | 6.4 | 9.7 | 0.00 | 0.00 | 0.00 | 87 | 1015.8 |
| 20260506033158 | 11 | 271 | 8.0 | 8.0 | 0.00 | 0.00 | 0.00 | 87 | 1015.8 |
| 20260506032658 | 12 | 274 | 4.8 | 9.7 | 0.00 | 0.00 | 0.00 | 86 | 1015.7 |
| 20260506032158 | 12 | 276 | 6.4 | 9.7 | 0.00 | 0.00 | 0.00 | 86 | 1015.8 |
| 20260506031658 | 12 | 285 | 4.8 | 9.7 | 0.00 | 0.00 | 0.00 | 86 | 1015.8 |
| 20260506031158 | 12 | 288 | 6.4 | 8.0 | 0.00 | 0.00 | 0.00 | 85 | 1015.8 |
| 20260506025658 | 12 | 236 | 6.4 | 12.9 | 0.00 | 0.00 | 0.00 | 84 | 1015.9 |
| 20260506025157 | 12 | 265 | 9.7 | 12.9 | 0.00 | 0.00 | 0.00 | 84 | 1015.9 |
| 20260506023157 | 13 | 269 | 3.2 | 9.7 | 0.00 | 0.00 | 0.00 | 83 | 1015.8 |
| 20260506022657 | 13 | 270 | 4.8 | 11.3 | 0.00 | 0.00 | 0.00 | 83 | 1015.8 |
| 20260506022157 | 13 | 295 | 6.4 | 11.3 | 0.00 | 0.00 | 0.00 | 82 | 1015.8 |
| 20260506020656 | 13 | 272 | 6.4 | 11.3 | 0.00 | 0.00 | 0.00 | 82 | 1015.8 |
| 20260506020156 | 13 | 274 | 4.8 | 14.5 | 0.00 | 0.00 | 0.00 | 82 | 1015.8 |
| 20260506015656 | 13 | 242 | 8.0 | 14.5 | 0.00 | 0.00 | 0.00 | 81 | 1015.8 |
| 20260506014656 | 13 | 281 | 3.2 | 14.5 | 0.00 | 0.00 | 0.00 | 81 | 1015.9 |
| 20260506014156 | 13 | 278 | 4.8 | 14.5 | 0.00 | 0.00 | 0.00 | 81 | 1015.9 |
| 20260506013156 | 13 | 264 | 8.0 | 17.7 | 0.00 | 0.00 | 0.00 | 80 | 1016.0 |
| 20260506012656 | 13 | 287 | 11.3 | 17.7 | 0.00 | 0.00 | 0.00 | 81 | 1015.9 |
| 20260506012156 | 14 | 294 | 9.7 | 16.1 | 0.00 | 0.00 | 0.00 | 79 | 1016.0 |
| 20260506011655 | 14 | 286 | 9.7 | 16.1 | 0.00 | 0.00 | 0.00 | 78 | 1016.0 |
| 20260506011155 | 14 | 291 | 6.4 | 12.9 | 0.00 | 0.00 | 0.00 | 79 | 1015.9 |
| 20260506010655 | 14 | 309 | 8.0 | 14.5 | 0.00 | 0.00 | 0.00 | 78 | 1016.0 |
| 20260506010155 | 15 | 329 | 11.3 | 14.5 | 0.00 | 0.00 | 0.00 | 79 | 1016.0 |
| 20260506005655 | 14 | 245 | 3.2 | 17.7 | 0.00 | 0.00 | 0.00 | 79 | 1016.0 |
| 20260506005155 | 14 | 294 | 8.0 | 17.7 | 0.00 | 0.00 | 0.00 | 79 | 1016.0 |
| 20260506004655 | 14 | 294 | 6.4 | 14.5 | 0.00 | 0.00 | 0.00 | 79 | 1016.0 |
| 20260506004155 | 14 | 300 | 6.4 | 14.5 | 0.00 | 0.00 | 0.00 | 79 | 1016.0 |
| 20260506003655 | 14 | 206 | 11.3 | 14.5 | 0.00 | 0.00 | 0.00 | 79 | 1016.1 |
| 20260506003155 | 14 | 268 | 3.2 | 12.9 | 0.00 | 0.00 | 0.00 | 79 | 1016.1 |
| 20260506002655 | 14 | 300 | 8.0 | 16.1 | 0.00 | 0.00 | 0.00 | 79 | 1016.0 |
| 20260506002155 | 14 | 282 | 6.4 | 16.1 | 0.00 | 0.00 | 0.00 | 80 | 1016.1 |
| 20260506001655 | 14 | 326 | 9.7 | 14.5 | 0.00 | 0.00 | 0.00 | 80 | 1016.1 |
| 20260506001155 | 14 | 283 | 6.4 | 14.5 | 0.00 | 0.00 | 0.00 | 80 | 1016.0 |
| 20260506000655 | 15 | 328 | 8.0 | 11.3 | 0.00 | 0.00 | 0.00 | 80 | 1016.0 |
| 20260506000155 | 15 | 251 | 4.8 | 11.3 | 0.00 | 0.00 | 0.00 | 80 | 1016.1 |
| 20260505235654 | 14 | 245 | 3.2 | 11.3 | 0.00 | 0.00 | 0.00 | 81 | 1016.1 |
| 20260505234654 | 14 | 259 | 6.4 | 11.3 | 0.00 | 0.00 | 0.00 | 82 | 1016.3 |
| 20260505234154 | 14 | 347 | 8.0 | 9.7 | 0.00 | 0.00 | 0.00 | 81 | 1016.3 |
| 20260505233154 | 14 | 340 | 8.0 | 11.3 | 0.00 | 0.00 | 0.00 | 82 | 1016.4 |
| 20260505232654 | 14 | 297 | 8.0 | 11.3 | 0.00 | 0.00 | 0.00 | 82 | 1016.4 |
| 20260505232154 | 14 | 287 | 9.7 | 9.7 | 0.00 | 0.00 | 0.00 | 82 | 1016.4 |
| 20260505231654 | 14 | 316 | 8.0 | 12.9 | 0.00 | 0.00 | 0.00 | 81 | 1016.4 |
| 20260505231153 | 14 | 314 | 8.0 | 12.9 | 0.00 | 0.00 | 0.00 | 83 | 1016.5 |
| 20260505230154 | 13 | 333 | 4.8 | 11.3 | 0.00 | 0.00 | 0.00 | 84 | 1016.5 |
| 20260505225654 | 13 | 335 | 4.8 | 12.9 | 0.00 | 0.00 | 0.00 | 83 | 1016.6 |
| 20260505225153 | 13 | 238 | 3.2 | 12.9 | 0.00 | 0.00 | 0.00 | 83 | 1016.6 |
| 20260505224153 | 14 | 274 | 1.6 | 9.7 | 0.00 | 0.00 | 0.00 | 82 | 1016.7 |
| 20260505223153 | 14 | 335 | 1.6 | 9.7 | 0.00 | 0.00 | 0.00 | 82 | 1016.7 |
| 20260505222653 | 14 | 320 | 8.0 | 9.7 | 0.00 | 0.00 | 0.00 | 82 | 1016.7 |